Weather History for KDAL - May, 2012

Change the Weather History Date:

Saturday, May 12, 2012

  Actual Average Record
Temperature  
Mean Temperature 68 °F -  
Max Temperature 72 °F 82 °F 95 °F (2000)
Min Temperature 63 °F 62 °F 52 °F (2008)
Cooling Degree Days 2    
Growing Degree Days 18 (Base 50)    
Moisture  
Dew Point 61 °F    
Average Humidity 83    
Maximum Humidity 97    
Minimum Humidity 63    
Precipitation  
Precipitation 0.01 in - - ()
Sea Level Pressure  
Sea Level Pressure 30.06 in    
Wind  
Wind Speed 3 mph (NNE)    
Max Wind Speed 13 mph    
Max Gust Speed -    
Visibility 9 miles    
Events      
Averages and records for this station are not official NWS values.
T = Trace of Precipitation, MM = Missing Value Source: NWS Daily Summary

Daily Weather History Graph

Daily Weather History Graph

Search for Another Location

Airport or City:

Trip Planner

Search our weather history database for the weather conditions in past years. The results will help you decide how hot, cold, wet, or windy it might be!

Date:

Astronomy

May. 12, 2012 Rise Set
Actual Time 6:30 AM CDT 8:17 PM CDT
Civil Twilight 6:03 AM CDT 8:44 PM CDT
Nautical Twilight 5:30 AM CDT 9:17 PM CDT
Astronomical Twilight 4:56 AM CDT 9:52 PM CDT
Moon 1:38 AM CDT (5/12) 1:02 PM CDT (5/12)
Length of Visible Light 14h 41m
Length of Day
13h 47m
Waning Gibbous, 52% of the Moon is Illuminated
May 12
Waning Gibbous
May 12
Last Quarter
May 20
New
May 28
First Quarter
Jun 4
Full

Hourly Weather History & Observations

Time (CDT) Temp. Dew Point Humidity Pressure Visibility Wind Dir Wind Speed Gust Speed Precip Events Conditions
12:12 AM 66.2 °F 62.6 °F 88% 29.99 in 10.0 mi Calm Calm - N/A   Mostly Cloudy
12:43 AM 64.4 °F 62.6 °F 94% 30.00 in 10.0 mi Calm Calm - N/A   Mostly Cloudy
12:53 AM 66.0 °F 63.0 °F 90% 29.99 in 10.0 mi Calm Calm - N/A   Overcast
1:53 AM 66.0 °F 62.1 °F 87% 29.99 in 10.0 mi ENE 3.5 mph - N/A   Overcast
2:23 AM 66.2 °F 62.6 °F 88% 30.00 in 10.0 mi Calm Calm - N/A   Mostly Cloudy
2:53 AM 64.9 °F 62.1 °F 90% 29.98 in 10.0 mi Calm Calm - N/A   Mostly Cloudy
3:21 AM 64.4 °F 62.6 °F 94% 30.00 in 10.0 mi Calm Calm - N/A   Overcast
3:53 AM 64.9 °F 63.0 °F 93% 29.99 in 10.0 mi Calm Calm - N/A   Overcast
4:39 AM 64.4 °F 62.6 °F 94% 30.00 in 10.0 mi East 4.6 mph - N/A   Mostly Cloudy
4:53 AM 64.0 °F 62.1 °F 93% 30.00 in 10.0 mi Calm Calm - N/A   Mostly Cloudy
5:41 AM 64.4 °F 62.6 °F 94% 30.02 in 10.0 mi Calm Calm - N/A   Mostly Cloudy
5:53 AM 64.9 °F 63.0 °F 93% 30.01 in 10.0 mi Calm Calm - N/A   Mostly Cloudy
6:28 AM 64.4 °F 62.6 °F 94% 30.03 in 8.0 mi North 3.5 mph - N/A   Scattered Clouds
6:45 AM 64.4 °F 62.6 °F 94% 30.03 in 7.0 mi NE 4.6 mph - N/A   Scattered Clouds
6:53 AM 63.0 °F 62.1 °F 97% 30.03 in 6.0 mi Calm Calm - N/A   Scattered Clouds
7:13 AM 64.4 °F 62.6 °F 94% 30.05 in 7.0 mi NE 4.6 mph - N/A   Mostly Cloudy
7:53 AM 64.9 °F 63.0 °F 93% 30.06 in 8.0 mi ENE 3.5 mph - N/A   Mostly Cloudy
8:08 AM 66.2 °F 62.6 °F 88% 30.08 in 8.0 mi NE 4.6 mph - N/A   Mostly Cloudy
8:20 AM 64.4 °F 62.6 °F 94% 30.08 in 7.0 mi NE 6.9 mph - N/A   Overcast
8:41 AM 66.2 °F 62.6 °F 88% 30.08 in 5.0 mi NE 8.1 mph - N/A   Mostly Cloudy
8:53 AM 66.0 °F 63.0 °F 90% 30.08 in 6.0 mi NE 5.8 mph - N/A   Mostly Cloudy
9:02 AM 64.4 °F 62.6 °F 94% 30.10 in 6.0 mi NNE 5.8 mph - N/A   Overcast
9:07 AM 64.4 °F 62.6 °F 94% 30.10 in 6.0 mi NE 9.2 mph - N/A   Overcast
9:53 AM 64.0 °F 61.0 °F 90% 30.10 in 8.0 mi NE 5.8 mph - N/A   Overcast
10:34 AM 66.2 °F 62.6 °F 88% 30.11 in 10.0 mi North 5.8 mph - N/A   Mostly Cloudy
10:53 AM 68.0 °F 62.1 °F 81% 30.10 in 10.0 mi Variable 4.6 mph - N/A   Mostly Cloudy
11:22 AM 68.0 °F 60.8 °F 78% 30.11 in 10.0 mi NNE 9.2 mph - N/A   Mostly Cloudy
11:53 AM 69.1 °F 60.1 °F 73% 30.11 in 10.0 mi North 9.2 mph - N/A   Mostly Cloudy
12:53 PM 70.0 °F 59.0 °F 68% 30.10 in 10.0 mi North 12.7 mph - N/A   Mostly Cloudy
1:53 PM 69.1 °F 59.0 °F 70% 30.10 in 10.0 mi NNW 11.5 mph - N/A   Overcast
2:48 PM 69.8 °F 59.0 °F 68% 30.10 in 10.0 mi NNE 9.2 mph - N/A   Mostly Cloudy
2:53 PM 70.0 °F 59.0 °F 68% 30.09 in 10.0 mi NNE 6.9 mph - N/A   Mostly Cloudy
3:53 PM 72.0 °F 59.0 °F 64% 30.09 in 10.0 mi NNE 8.1 mph - N/A   Overcast
4:53 PM 71.1 °F 59.0 °F 66% 30.09 in 10.0 mi NE 10.4 mph - N/A   Overcast
5:53 PM 70.0 °F 59.0 °F 68% 30.10 in 10.0 mi NE 5.8 mph - N/A   Overcast
6:53 PM 71.1 °F 57.9 °F 63% 30.09 in 10.0 mi NNE 8.1 mph - 0.01 in   Mostly Cloudy
7:53 PM 70.0 °F 59.0 °F 68% 30.10 in 10.0 mi NNE 4.6 mph - N/A   Mostly Cloudy
8:53 PM 69.1 °F 59.0 °F 70% 30.13 in 10.0 mi Calm Calm - N/A   Mostly Cloudy
9:53 PM 69.1 °F 59.0 °F 70% 30.14 in 10.0 mi North 4.6 mph - N/A   Mostly Cloudy
10:53 PM 68.0 °F 60.1 °F 76% 30.15 in 10.0 mi North 3.5 mph - N/A   Mostly Cloudy
11:53 PM 68.0 °F 59.0 °F 73% 30.14 in 10.0 mi North 4.6 mph - N/A   Mostly Cloudy